Regional Weather Roundup
Issued by NWS

Home | Current Version | Previous Version | Graphics & Text | Print | Product List | Glossary On
Versions: 1 2 3 4 5 6 7 8 9 10 11 12 13 14 15 16 17 18 19 20 21 22 23 24 25 26 27 28 29 30 31 32 33 34 35 36 37 38 39 40 41 42 43 44 45 46 47 48 49 50
000
ASUS45 KABQ 292001
RWRNM
NEW MEXICO REGIONAL WEATHER ROUNDUP
NATIONAL WEATHER SERVICE ALBUQUERQUE NM
200 PM MDT FRI APR 29 2016

NOTE: "FAIR" MEANS FEW OR NO CLOUDS BELOW 12,000 FEET AGL WITH NO
       SIGNIFICANT WEATHER OR OBSTRUCTIONS TO VISION.

      THIS PRODUCT IS RELEASED AS TWO VERSIONS.  ONE VERSION NEAR
      THE TOP OF THE HOUR CONTAINING PRELIMINARY DATA FROM ALBUQUERQUE
      AND OTHER STATIONS.  A FINAL VERSION WITH ADDITIONAL DATA IS
      ISSUED ABOUT 10 MINUTES AFTER THE HOUR.

NMZ501-503-504-510>518-292100-
NORTHWEST PLATEAU/NORTHCENTRAL MOUNTAINS

CITY           SKY/WX    TMP DP  RH WIND       PRES   REMARKS
FARMINGTON     PTSUNNY   55  26  32 W13G29    29.80F
SANTA FE       PTSUNNY   50  32  50 N10       29.82S
TAOS           CLOUDY    37  28  70 S10       29.84S WCI  30
ANGEL FIRE     LGT SNOW  33  29  88 SW13G18   29.85R VSB 3/4 WCI  23

$$
NMZ402-403-502-505>509-292100-
WESTCENTRAL MOUNTAINS/SOUTHWEST MOUNTAINS

CITY           SKY/WX    TMP DP  RH WIND       PRES   REMARKS
GALLUP         LGT RAIN  51  33  50 W16G29    29.88F
GRANTS         PTSUNNY   53  28  38 W14G30    29.88F
SILVER CITY      N/A     63  25  23 W20G39    29.92S

$$
NMZ407-409-411-412-292100-
SOUTHERN DESERTS

CITY           SKY/WX    TMP DP  RH WIND       PRES   REMARKS
LORDSBURG      PTSUNNY   64  27  24 NW20G29   29.91S
DEMING         FAIR      67  27  22 W17G32    29.87F
ALAMOGORDO     FAIR      66  16  14 W8G21     29.84F
T OR C         CLOUDY    64  17  16 S10G16    29.81F

$$
NMZ519>523-292100-
CENTRAL VALLEYS/CENTRAL HIGHLANDS

CITY           SKY/WX    TMP DP  RH WIND       PRES   REMARKS
ALBUQUERQUE    PTSUNNY   56  26  31 NW20G28   29.83S
DOUBLE EAGLE   LGT RAIN  46  32  57 S8        29.85R
CLINES CORNERS PTSUNNY   52  25  35 W23G32    29.82S
BELEN          CLOUDY    58  24  27 W16G22    29.84S
SOCORRO        NOT AVBL

$$
NMZ524>526-539-540-292100-
SOUTHCENTRAL MOUNTAINS

CITY           SKY/WX    TMP DP  RH WIND       PRES   REMARKS
RUIDOSO        NOT AVBL

$$
NMZ527>531-292100-
NORTHEAST HIGHLANDS/NORTHEAST PLAINS

CITY           SKY/WX    TMP DP  RH WIND       PRES   REMARKS
LAS VEGAS      PTSUNNY   49  23  36 W10G28    29.81S
RATON          CLOUDY    41  33  73 E6        29.82F
CLAYTON        CLOUDY    43  37  79 N15       29.82S

$$
NMZ532>537-292100-
EASTCENTRAL PLAINS

CITY           SKY/WX    TMP DP  RH WIND       PRES   REMARKS
TUCUMCARI      CLOUDY    57  44  62 N13G18    29.78S
CANNON AFB     PTSUNNY   55  46  71 NW15      29.79R
CLOVIS AIRPORT FAIR      57  45  62 W25       29.79R

$$
NMZ028-029-538-292100-
SOUTHEAST PLAINS

CITY           SKY/WX    TMP DP  RH WIND       PRES   REMARKS
ROSWELL        FAIR      75  16  10 W13       29.72F
ARTESIA        FAIR      75  16  10 SW14G26   29.72F
CARLSBAD       FAIR      76  13   9 SW18G35   29.75F
HOBBS          SUNNY     75  10   8 SW26G35   29.75F


$$



USA.gov is the U.S. government's official web portal to all federal, state and local government web resources and services.